Location: Haram ta Haram Freeway
(35.0583°N, 51.4202°E)
Time: 03:50:14
(UTC+03:30)

IRIDIUM 33 DEB - Pass Details

Date: 06 December 2021
Orbit: 663 x 816 km, 86.4° (Epoch: 21 January)

Event Time Altitude Azimuth Distance (km) Brightness Sun altitude
Rises 18:58:14 0° 193° (SSW) 3,334 ? -25.1°
Reaches altitude 10° 19:00:41 10° 198° (SSW) 2,400 ? -25.6°
Maximum altitude 19:05:57 52° 274° (W) 993 ? -26.7°
Drops below altitude 10° 19:11:07 10° 351° (N) 2,354 ? -27.7°
Enters shadow 19:12:38 - 355° (N) 2,924 ? -28.0°
